Location: Freiburg/Brg
(47.9957°N, 7.8422°E)
Time: 01:45:19
(UTC+01:00)

ISS - Visible Passes

Search period start: 29 November 2021 00:00
Search period end: 09 December 2021 00:00
Orbit: 417 x 423 km, 51.6° (Epoch: 28 November)

Date Brightness Start Highest point End Pass type
(mag) Time Alt. Az. Time Alt. Az. Time Alt. Az.
29 Nov -3.0 18:41:57 10° WNW 18:44:54 44° NNW 18:44:54 44° NNW visible
30 Nov -3.1 17:54:41 10° WNW 17:57:58 43° N 17:59:38 24° ENE visible
30 Nov -1.0 19:31:38 10° WNW 19:32:37 18° WNW 19:32:37 18° WNW visible
01 Dec -3.1 17:07:24 10° WNW 17:10:40 43° N 17:13:57 10° ENE visible
01 Dec -3.4 18:44:26 10° WNW 18:47:22 56° NNW 18:47:22 56° NNW visible
02 Dec -3.5 17:57:12 10° WNW 18:00:33 52° NNE 18:02:11 26° ENE visible
02 Dec -0.9 19:34:06 10° WNW 19:35:10 18° W 19:35:10 18° W visible
03 Dec -3.3 17:09:56 10° WNW 17:13:14 46° N 17:16:32 10° E visible
03 Dec -3.5 18:46:50 10° WNW 18:50:04 68° SW 18:50:04 68° SW visible
04 Dec -3.8 17:59:34 10° WNW 18:02:59 85° NNE 18:05:04 22° ESE visible
04 Dec -0.8 19:36:51 10° W 19:38:05 16° WSW 19:38:05 16° WSW visible
05 Dec -3.7 17:12:18 10° WNW 17:15:42 65° NNE 17:19:04 10° E visible
05 Dec -2.1 18:49:19 10° W 18:52:23 31° SW 18:53:16 27° S visible
06 Dec -2.7 18:01:55 10° WNW 18:05:12 47° SSW 18:08:28 10° SE visible
07 Dec -3.4 17:14:35 10° WNW 17:17:58 69° SSW 17:21:21 10° SE visible
07 Dec -0.7 18:52:29 10° WSW 18:54:17 14° SW 18:56:04 10° SSW visible
08 Dec -1.0 18:04:34 10° W 18:07:10 21° SW 18:09:47 10° S visible
